Location: Bismarck
(46.7731°N, 100.8200°W)
Time: 15:15:14
(UTC-05:00)

Landsat 7 - Visible Passes

Search period start: 25 August 2016 00:00
Search period end: 04 September 2016 00:00
Orbit: 702 x 703 km, 98.2° (Epoch: 25 August)

Date Brightness Start Highest point End Pass type
(mag) Time Alt. Az. Time Alt. Az. Time Alt. Az.
25 Aug 6.0 00:42:10 17° W 00:42:10 17° W 00:45:11 10° NW visible
25 Aug 5.3 22:07:46 18° E 22:09:17 21° ENE 22:12:47 10° NNE visible
25 Aug 4.2 23:46:39 55° W 23:46:39 55° W 23:51:21 10° NNW visible
26 Aug 4.2 22:51:08 44° E 22:51:43 47° ENE 22:56:17 10° N visible
27 Aug 5.7 00:30:02 22° W 00:30:02 22° W 00:33:25 10° NW visible
27 Aug 5.6 21:55:37 14° E 21:57:13 17° ENE 22:00:11 10° NNE visible
27 Aug 3.9 23:34:31 71° W 23:34:31 71° W 23:39:12 10° NNW visible
28 Aug 4.5 22:39:00 35° E 22:39:34 36° ENE 22:43:56 10° N visible
29 Aug 5.4 00:17:54 28° W 00:17:54 28° W 00:21:30 10° NW visible
29 Aug 5.8 21:43:29 11° ENE 21:45:11 13° ENE 21:47:23 10° NNE visible
29 Aug 3.7 23:22:23 83° N 23:22:23 83° N 23:27:00 10° NNW visible
30 Aug 6.5 01:01:16 11° WNW 01:01:16 11° WNW 01:02:13 10° WNW visible
30 Aug 4.8 22:26:52 28° ENE 22:27:27 29° ENE 22:31:32 10° N visible
31 Aug 5.1 00:05:46 35° WNW 00:05:46 35° WNW 00:09:30 10° NNW visible
31 Aug 6.0 21:32:20 10° ENE 21:33:09 10° NE 21:33:58 10° NE visible
31 Aug 3.9 23:10:15 67° NE 23:10:15 67° NE 23:14:45 10° N visible
01 Sep 6.3 00:49:08 15° WNW 00:49:08 15° WNW 00:51:00 10° NW visible
01 Sep 5.2 22:14:44 22° ENE 22:15:21 23° ENE 22:19:05 10° NNE visible
01 Sep 4.8 23:53:38 43° WNW 23:53:38 43° WNW 23:57:25 10° NNW visible
02 Sep 4.1 22:58:07 52° NE 22:58:07 52° NE 23:02:27 10° N visible
03 Sep 6.1 00:37:00 18° WNW 00:37:00 18° WNW 00:39:21 10° NW visible
03 Sep 5.4 22:02:36 18° ENE 22:03:16 19° ENE 22:06:31 10° NNE visible
03 Sep 4.5 23:41:30 51° NW 23:41:30 51° NW 23:45:18 10° NNW visible
